Hourly Weather Skierniewice

Today, 29 October, Thursday

Time Temperature Precipitation Wind Pressure Humidity
00:00 +11°C° 0 mm 3 mps 749 mmHg 75%
01:00 +11°C° 0 mm 3 mps 749 mmHg 74%
02:00 +10°C° 0 mm 3 mps 749 mmHg 78%
03:00 +9°C° 0 mm 3 mps 749 mmHg 81%
04:00 +9°C° 0 mm 3 mps 748 mmHg 84%
05:00 +9°C° 0 mm 3 mps 748 mmHg 84%
06:00 +9°C° 0 mm 3 mps 748 mmHg 84%
07:00 +9°C° 0 mm 3 mps 748 mmHg 85%
08:00 +10°C° 0 mm 4 mps 748 mmHg 80%
09:00 +11°C° 0 mm 4 mps 748 mmHg 75%
10:00 +12°C° 0 mm 5 mps 748 mmHg 70%
11:00 +12°C° 0 mm 5 mps 748 mmHg 69%
12:00 +13°C° 0 mm 6 mps 748 mmHg 68%
13:00 +13°C° 0 mm 6 mps 747 mmHg 67%
14:00 +12°C° 0.2 mm 5 mps 748 mmHg 71%
15:00 +12°C° 0.2 mm 5 mps 748 mmHg 75%
16:00 +11°C° 0.2 mm 4 mps 748 mmHg 79%
17:00 +11°C° 0.1 mm 4 mps 748 mmHg 78%
18:00 +9°C° 0.1 mm 5 mps 749 mmHg 77%
19:00 +8°C° 0.1 mm 5 mps 749 mmHg 76%
20:00 +8°C° 0 mm 5 mps 750 mmHg 77%
21:00 +7°C° 0 mm 5 mps 750 mmHg 77%
22:00 +7°C° 0 mm 4 mps 750 mmHg 78%
23:00 +6°C° 0 mm 5 mps 750 mmHg 79%

Tomorrow, 30 October, Friday

Time Temperature Precipitation Wind Pressure Humidity
00:00 +6°C° 0 mm 5 mps 751 mmHg 80%
01:00 +6°C° 0 mm 5 mps 751 mmHg 81%
02:00 +6°C° 0 mm 5 mps 751 mmHg 83%
03:00 +5°C° 0 mm 5 mps 751 mmHg 85%
04:00 +5°C° 0 mm 5 mps 751 mmHg 87%
05:00 +5°C° 0 mm 5 mps 751 mmHg 86%
06:00 +5°C° 0 mm 5 mps 751 mmHg 86%
07:00 +5°C° 0 mm 5 mps 752 mmHg 86%
08:00 +6°C° 0 mm 4 mps 752 mmHg 82%
09:00 +7°C° 0 mm 4 mps 752 mmHg 78%
10:00 +7°C° 0 mm 4 mps 752 mmHg 75%
11:00 +8°C° 0 mm 4 mps 751 mmHg 71%
12:00 +10°C° 0 mm 4 mps 751 mmHg 68%
13:00 +10°C° 0 mm 4 mps 751 mmHg 65%
14:00 +10°C° 0.2 mm 4 mps 750 mmHg 72%
15:00 +9°C° 0.2 mm 3 mps 750 mmHg 79%
16:00 +8°C° 0.2 mm 3 mps 750 mmHg 85%
17:00 +8°C° 0.3 mm 2 mps 750 mmHg 87%
18:00 +9°C° 0.3 mm 1 mps 750 mmHg 90%
19:00 +9°C° 0.3 mm 1 mps 750 mmHg 92%
20:00 +9°C° 0.6 mm 1 mps 750 mmHg 93%
21:00 +9°C° 0.6 mm 1 mps 750 mmHg 93%
22:00 +8°C° 0.6 mm 0 mps 750 mmHg 94%
23:00 +9°C° 0.3 mm 1 mps 750 mmHg 94%

Day after tomorrow, 31 October, Saturday

Time Temperature Precipitation Wind Pressure Humidity
00:00 +9°C° 0.3 mm 1 mps 751 mmHg 95%
01:00 +9°C° 0.3 mm 1 mps 751 mmHg 95%
02:00 +8°C° 0 mm 1 mps 751 mmHg 95%
03:00 +8°C° 0 mm 1 mps 752 mmHg 95%
04:00 +7°C° 0 mm 2 mps 752 mmHg 94%
05:00 +7°C° 0 mm 1 mps 753 mmHg 93%
06:00 +7°C° 0 mm 1 mps 753 mmHg 93%
07:00 +6°C° 0 mm 1 mps 754 mmHg 92%
08:00 +8°C° 0 mm 1 mps 754 mmHg 85%
09:00 +8°C° 0 mm 2 mps 754 mmHg 78%
10:00 +9°C° 0 mm 2 mps 755 mmHg 72%
11:00 +10°C° 0 mm 2 mps 755 mmHg 70%
12:00 +12°C° 0 mm 2 mps 755 mmHg 68%
13:00 +12°C° 0 mm 2 mps 755 mmHg 67%
14:00 +12°C° 0 mm 2 mps 755 mmHg 71%
15:00 +10°C° 0 mm 2 mps 755 mmHg 75%
16:00 +10°C° 0 mm 2 mps 755 mmHg 79%
17:00 +9°C° 0 mm 2 mps 756 mmHg 81%
18:00 +9°C° 0 mm 2 mps 756 mmHg 83%
19:00 +10°C° 0 mm 1 mps 757 mmHg 85%
20:00 +8°C° 0 mm 2 mps 757 mmHg 87%
21:00 +8°C° 0 mm 2 mps 757 mmHg 89%
22:00 +7°C° 0 mm 2 mps 757 mmHg 91%
23:00 +7°C° 0 mm 2 mps 757 mmHg 91%

1 November, Sunday

Time Temperature Precipitation Wind Pressure Humidity
00:00 +6°C° 0 mm 2 mps 757 mmHg 90%
01:00 +6°C° 0 mm 2 mps 757 mmHg 90%
02:00 +6°C° 0 mm 2 mps 757 mmHg 90%
03:00 +5°C° 0 mm 2 mps 757 mmHg 90%
04:00 +5°C° 0 mm 2 mps 757 mmHg 91%
05:00 +5°C° 0 mm 2 mps 757 mmHg 91%
06:00 +5°C° 0 mm 2 mps 757 mmHg 91%
07:00 +4°C° 0 mm 2 mps 757 mmHg 92%
08:00 +5°C° 0 mm 3 mps 757 mmHg 86%
09:00 +7°C° 0 mm 3 mps 757 mmHg 80%
10:00 +7°C° 0 mm 4 mps 757 mmHg 73%
11:00 +8°C° 0 mm 4 mps 756 mmHg 70%
12:00 +10°C° 0 mm 4 mps 756 mmHg 66%
13:00 +11°C° 0 mm 4 mps 756 mmHg 62%
14:00 +10°C° 0 mm 4 mps 755 mmHg 65%
15:00 +8°C° 0 mm 4 mps 755 mmHg 69%
16:00 +8°C° 0 mm 4 mps 755 mmHg 72%
17:00 +7°C° 0 mm 4 mps 755 mmHg 75%
18:00 +6°C° 0 mm 4 mps 755 mmHg 78%
19:00 +6°C° 0 mm 4 mps 755 mmHg 82%
20:00 +5°C° 0 mm 4 mps 754 mmHg 82%
21:00 +5°C° 0 mm 4 mps 754 mmHg 83%
22:00 +5°C° 0 mm 4 mps 754 mmHg 84%
23:00 +5°C° 0 mm 4 mps 754 mmHg 84%

2 November, Monday

Time Temperature Precipitation Wind Pressure Humidity
00:00 +4°C° 0 mm 4 mps 754 mmHg 85%
01:00 +4°C° 0 mm 4 mps 753 mmHg 85%
02:00 +4°C° 0 mm 4 mps 753 mmHg 86%
03:00 +4°C° 0 mm 4 mps 753 mmHg 86%
04:00 +4°C° 0 mm 4 mps 753 mmHg 87%
05:00 +4°C° 0 mm 4 mps 753 mmHg 87%
06:00 +4°C° 0 mm 4 mps 753 mmHg 86%
07:00 +4°C° 0 mm 4 mps 753 mmHg 86%
08:00 +6°C° 0 mm 4 mps 753 mmHg 80%
09:00 +7°C° 0 mm 4 mps 753 mmHg 75%
10:00 +9°C° 0 mm 5 mps 753 mmHg 69%
11:00 +10°C° 0 mm 5 mps 752 mmHg 66%
12:00 +12°C° 0 mm 5 mps 752 mmHg 62%
13:00 +13°C° 0 mm 5 mps 752 mmHg 59%
14:00 +12°C° 0 mm 5 mps 752 mmHg 61%
15:00 +11°C° 0 mm 4 mps 752 mmHg 63%
16:00 +10°C° 0 mm 4 mps 752 mmHg 64%
17:00 +10°C° 0 mm 4 mps 752 mmHg 66%
18:00 +8°C° 0 mm 4 mps 752 mmHg 67%
19:00 +8°C° 0 mm 5 mps 752 mmHg 68%
20:00 +8°C° 0 mm 5 mps 752 mmHg 69%
21:00 +8°C° 0 mm 5 mps 752 mmHg 70%
22:00 +8°C° 0 mm 5 mps 752 mmHg 71%
23:00 +7°C° 0 mm 5 mps 752 mmHg 72%

3 November, Tuesday

Time Temperature Precipitation Wind Pressure Humidity
00:00 +7°C° 0 mm 5 mps 752 mmHg 73%
01:00 +7°C° 0 mm 5 mps 752 mmHg 74%
02:00 +7°C° 0 mm 4 mps 752 mmHg 76%
03:00 +6°C° 0 mm 4 mps 752 mmHg 77%
04:00 +6°C° 0 mm 4 mps 752 mmHg 78%
05:00 +6°C° 0 mm 4 mps 753 mmHg 81%
06:00 +5°C° 0 mm 4 mps 753 mmHg 84%
07:00 +5°C° 0 mm 4 mps 753 mmHg 86%
08:00 +6°C° 0 mm 4 mps 753 mmHg 83%
09:00 +7°C° 0 mm 4 mps 753 mmHg 79%
10:00 +10°C° 0 mm 4 mps 753 mmHg 75%
11:00 +10°C° 0 mm 5 mps 753 mmHg 72%
12:00 +10°C° 0 mm 5 mps 753 mmHg 68%
13:00 +12°C° 0 mm 5 mps 753 mmHg 65%
14:00 +12°C° 0 mm 4 mps 753 mmHg 67%
15:00 +11°C° 0 mm 4 mps 753 mmHg 70%
16:00 +10°C° 0 mm 3 mps 754 mmHg 73%
17:00 +8°C° 0 mm 4 mps 754 mmHg 78%
18:00 +8°C° 0 mm 4 mps 754 mmHg 82%
19:00 +7°C° 0 mm 5 mps 755 mmHg 87%
20:00 +7°C° 0 mm 4 mps 755 mmHg 87%
21:00 +6°C° 0 mm 4 mps 755 mmHg 87%
22:00 +7°C° 0 mm 3 mps 755 mmHg 87%
23:00 +7°C° 0 mm 3 mps 755 mmHg 89%
Show more